Skip Page Navigation
NASA JPL Caltech
NASA Logo - Jet Propulsion Laboratory + View the NASA Portal
+ Center for Near-Earth Object Studies
JPL Home Earth Solar System Stars & Galaxies Technology
JPL Solar System Dynamics
BODIES ORBITS EPHEMERIDES TOOLS PHYSICAL DATA DISCOVERY FAQ SITE MAP
IMPORTANT: The SSD Announcement email list is now available. Major changes are coming in the near future, including possible hostname and/or URL changes. To be notified of such changes, subscribe to this email list.

Please visit this page for more details.


JPL Small-Body Database Browser
Search: [ help ]  
65339 (2002 NJ2)
Classification: Main-belt Asteroid          SPK-ID: 2065339
Ephemeris | Orbit Diagram | Orbital Elements | Mission Design | Physical Parameters | Discovery Circumstances | Close-Approach Data ]

[ show orbit diagram ]
Orbital Elements at Epoch 2458600.5 (2019-Apr-27.0) TDB
Reference: JPL 27 (heliocentric ecliptic J2000)
 Element Value Uncertainty (1-sigma)   Units 
e .1066297628175463 4.6631e-08  
a 3.090109783701905 1.9255e-08 au
q 2.760612110385591 1.414e-07 au
i 8.602257629853854 3.9444e-06 deg
node 286.944165643085 3.1194e-05 deg
peri 39.85562312926212 3.6732e-05 deg
M 9.755227387813207 2e-05 deg
tp 2458546.735676364738
(2019-Mar-04.23567636)
0.00011015 TDB
period 1984.080507736178
5.43
1.8545e-05
5.077e-08
d
yr
n .1814442501684357 1.6959e-09 deg/d
Q 3.419607457018218 2.1308e-08 au
  Orbit Determination Parameters
   # obs. used (total)      1065  
   data-arc span      8094 days (22.16 yr)  
   first obs. used      1997-09-30  
   last obs. used      2019-11-28  
   planetary ephem.      DE431  
   SB-pert. ephem.      SB431-N16  
   condition code      0  
   norm. resid. RMS      .49439  
   source      ORB  
   producer      Otto Matic  
   solution date      2019-Dec-14 06:55:56  

Additional Information
 Earth MOID = 1.75407 au 
 Jupiter MOID = 1.88182 au 
 T_jup = 3.199 
[ show covariance matrix ]

Ephemeris | Orbit Diagram | Orbital Elements | Mission Design | Physical Parameters | Discovery Circumstances | Close-Approach Data ]

Physical Parameter Table
Parameter Symbol Value Units Sigma Reference Notes
absolute magnitude H 14.1   n/a MPO502570  

65339 (2002 NJ2)          Discovered 2002-Jul-04 by NEAT at Palomar
Reference: 20030614/Numbers.arcLast Updated: 2004-04-19

[ show close-approach data ]
Ephemeris | Orbit Diagram | Orbital Elements | Mission Design | Physical Parameters | Discovery Circumstances | Close-Approach Data ]
ABOUT SSD CREDITS/AWARDS PRIVACY/COPYRIGHT GLOSSARY LINKS
FirstGov 2020-Jan-21 11:36 UT
(server date/time)  
NASA Home Page
Site Manager:   Ryan S. Park
Webmaster  Alan B. Chamberlin